Summerville, SC

2:17 PM EDT on April 26, 2017 (GMT -0400)
Summerville

Weather History for KDYB - August, 2014

Change the Weather History Date:

Friday, August 15, 2014

  Actual Average (KCHS) Record (KCHS)
Temperature  
Mean Temperature 78 °F -  
Max Temperature 89 °F 88 °F 96 °F (1957)
Min Temperature 68 °F 72 °F 63 °F (1967)
Cooling Degree Days 14    
Growing Degree Days 28 (Base 50)    
Moisture  
Dew Point 70 °F    
Average Humidity 79    
Maximum Humidity 100    
Minimum Humidity 46    
Precipitation  
Precipitation 0.00 in - - ()
Sea Level Pressure  
Sea Level Pressure 30.01 in    
Wind  
Wind Speed 1 mph (SE)    
Max Wind Speed 6 mph    
Max Gust Speed -    
Visibility 10 miles    
Events      
Averages and records for this station are not official NWS values.
T = Trace of Precipitation, MM = Missing Value Source: NWS Daily Summary

Daily Weather History Graph

Daily Weather History Graph

Search for Another Location

Airport or City:

Trip Planner

Search our weather history database for the weather conditions in past years. The results will help you decide how hot, cold, wet, or windy it might be!

Date:

Astronomy

Aug. 15, 2014 Rise Set
Actual Time 6:44 AM EDT 8:06 PM EDT
Civil Twilight 6:17 AM EDT 8:32 PM EDT
Nautical Twilight 5:46 AM EDT 9:03 PM EDT
Astronomical Twilight 5:14 AM EDT 9:36 PM EDT
Moon 11:28 PM EDT (8/15) 12:05 PM EDT (8/15)
Length of Visible Light 14h 14m
Length of Day
13h 22m
Waning Gibbous, 69% of the Moon is Illuminated
Aug 15
Waning Gibbous
Aug 17
Last Quarter
Aug 25
New
Sep 2
First Quarter
Sep 8
Full

Hourly Weather History & Observations

Time (EDT) Temp. Heat Index Dew Point Humidity Pressure Visibility Wind Dir Wind Speed Gust Speed Precip Events Conditions
12:35 AM 69.8 °F - 69.8 °F 100% 30.02 in 7.0 mi Calm Calm - N/A   Clear
12:55 AM 69.8 °F - 69.8 °F 100% 30.02 in 7.0 mi Calm Calm - N/A   Clear
1:55 AM 69.8 °F - 69.8 °F 100% 30.01 in 7.0 mi Calm Calm - N/A   Clear
2:35 AM 69.8 °F - 69.8 °F 100% 30.00 in 7.0 mi Calm Calm - N/A   Clear
2:55 AM 69.8 °F - 69.8 °F 100% 30.00 in 10.0 mi Calm Calm - N/A   Clear
3:15 AM 68.0 °F - 68.0 °F 100% 29.99 in 10.0 mi Calm Calm - N/A   Clear
3:35 AM 68.0 °F - 68.0 °F 100% 29.99 in 10.0 mi Calm Calm - N/A   Clear
3:55 AM 68.0 °F - 68.0 °F 100% 29.98 in 7.0 mi Calm Calm - N/A   Clear
4:35 AM 68.0 °F - 68.0 °F 100% 29.98 in 10.0 mi Calm Calm - N/A   Clear
4:55 AM 68.0 °F - 68.0 °F 100% 29.98 in 10.0 mi Calm Calm - N/A   Clear
5:15 AM 68.0 °F - 68.0 °F 100% 29.98 in 7.0 mi Calm Calm - N/A   Clear
5:35 AM 68.0 °F - 68.0 °F 100% 29.99 in 10.0 mi Calm Calm - N/A   Clear
5:55 AM 68.0 °F - 68.0 °F 100% 29.99 in 7.0 mi Calm Calm - N/A   Clear
6:35 AM 68.0 °F - 68.0 °F 100% 30.00 in 10.0 mi Calm Calm - N/A   Clear
6:55 AM 68.0 °F - 68.0 °F 100% 30.01 in 10.0 mi Calm Calm - N/A   Scattered Clouds
7:15 AM 68.0 °F - 68.0 °F 100% 30.02 in 7.0 mi Calm Calm - N/A   Mostly Cloudy
7:55 AM 69.8 °F - 69.8 °F 100% 30.02 in 10.0 mi Calm Calm - N/A   Overcast
8:15 AM 71.6 °F - 71.6 °F 100% 30.03 in 10.0 mi Calm Calm - N/A   Overcast
8:35 AM 73.4 °F - 71.6 °F 94% 30.04 in 10.0 mi Calm Calm - N/A   Mostly Cloudy
8:55 AM 77.0 °F - 73.4 °F 89% 30.04 in 10.0 mi Calm Calm - N/A   Scattered Clouds
9:15 AM 78.8 °F - 73.4 °F 83% 30.04 in 10.0 mi Calm Calm - N/A   Scattered Clouds
9:35 AM 80.6 °F 84.6 °F 71.6 °F 74% 30.05 in 10.0 mi Calm Calm - N/A   Scattered Clouds
9:55 AM 82.4 °F 86.3 °F 69.8 °F 66% 30.05 in 10.0 mi Calm Calm - N/A   Clear
10:15 AM 82.4 °F 86.3 °F 69.8 °F 66% 30.06 in 10.0 mi SE 3.5 mph - N/A   Clear
10:35 AM 84.2 °F 88.4 °F 69.8 °F 62% 30.06 in 10.0 mi East 3.5 mph - N/A   Clear
10:55 AM 84.2 °F 87.3 °F 68.0 °F 58% 30.06 in 10.0 mi Calm Calm - N/A   Clear
11:15 AM 86.0 °F 89.4 °F 68.0 °F 55% 30.06 in 10.0 mi ESE 3.5 mph - N/A   Clear
11:55 AM 87.8 °F 92.6 °F 69.8 °F 55% 30.05 in 10.0 mi SE 3.5 mph - N/A   Clear
12:15 PM 87.8 °F 91.4 °F 68.0 °F 52% 30.04 in 10.0 mi Calm Calm - N/A   Scattered Clouds
12:55 PM 87.8 °F 92.6 °F 69.8 °F 55% 30.02 in 10.0 mi Calm Calm - N/A   Scattered Clouds
1:15 PM 89.6 °F 93.4 °F 68.0 °F 49% 30.02 in 10.0 mi Calm Calm - N/A   Scattered Clouds
1:35 PM 89.6 °F 93.4 °F 68.0 °F 49% 30.01 in 10.0 mi East 3.5 mph - N/A   Scattered Clouds
2:15 PM 89.6 °F 92.2 °F 66.2 °F 46% 29.98 in 10.0 mi SE 5.8 mph - N/A   Scattered Clouds
2:35 PM 87.8 °F 91.4 °F 68.0 °F 52% 29.98 in 10.0 mi East 3.5 mph - N/A   Scattered Clouds
3:35 PM 86.0 °F 91.8 °F 71.6 °F 62% 29.97 in 10.0 mi SSE 3.5 mph - N/A   Mostly Cloudy
3:55 PM 82.4 °F 88.2 °F 73.4 °F 74% 29.98 in 10.0 mi Calm Calm - N/A   Overcast
4:15 PM 82.4 °F 88.2 °F 73.4 °F 74% 29.97 in 10.0 mi SE 3.5 mph - N/A   Overcast
4:35 PM 80.6 °F 84.6 °F 71.6 °F 74% 29.98 in 10.0 mi SSE 3.5 mph - N/A   Overcast
4:55 PM 80.6 °F 84.6 °F 71.6 °F 74% 29.98 in 10.0 mi SE 4.6 mph - N/A   Overcast
5:15 PM 80.6 °F 83.9 °F 69.8 °F 70% 29.99 in 10.0 mi SE 3.5 mph - N/A   Overcast
5:35 PM 86.0 °F 90.4 °F 69.8 °F 58% 29.99 in 10.0 mi ESE 4.6 mph - N/A   Overcast
5:55 PM 82.4 °F 86.3 °F 69.8 °F 66% 29.99 in 10.0 mi SE 5.8 mph - N/A   Mostly Cloudy
6:35 PM 86.0 °F 90.4 °F 69.8 °F 58% 29.98 in 10.0 mi SE 4.6 mph - N/A   Scattered Clouds
6:55 PM 84.2 °F 88.4 °F 69.8 °F 62% 29.98 in 10.0 mi SE 4.6 mph - N/A   Clear
7:15 PM 82.4 °F 86.3 °F 69.8 °F 66% 29.98 in 10.0 mi Calm Calm - N/A   Clear
7:35 PM 82.4 °F 87.2 °F 71.6 °F 70% 29.98 in 10.0 mi Calm Calm - N/A   Clear
8:35 PM 77.0 °F - 71.6 °F 83% 29.99 in 10.0 mi Calm Calm - N/A   Clear
9:15 PM 77.0 °F - 71.6 °F 83% 30.00 in 10.0 mi Calm Calm - N/A   Scattered Clouds
9:35 PM 75.2 °F - 71.6 °F 89% 30.00 in 10.0 mi Calm Calm - N/A   Scattered Clouds